Location: Boiro
(42.6475°N, 8.8834°W)
Time: 02:28:33
(UTC+01:00)

Explorer 11/Cluster Stage 4 - Pass Details

Date: 02 December 2021
Orbit: 467 x 1255 km, 28.8° (Epoch: 20 January)

Event Time Altitude Azimuth Distance (km) Brightness Sun altitude
Rises 08:15:11 0° 257° (WSW) 4,085 9.8 -6.1°
Reaches altitude 10° 08:18:43 10° 243° (WSW) 3,183 9.3 -5.5°
Maximum altitude 08:24:36 22° 197° (SSW) 2,415 9.2 -4.5°
Drops below altitude 10° 08:30:31 10° 150° (SSE) 3,181 10.7 -3.5°
Sets 08:34:03 0° 136° (SE) 4,082 11.9 -2.9°
